Location: Ch�tillon
(48.8024°N, 2.2935°E)
Time: 02:30:07
(UTC+00:00)

Oscar 19 - Pass Details

Date: 30 June 2022
Orbit: 773 x 790 km, 98.8° (Epoch: 17 August)

Event Time Altitude Azimuth Distance (km) Brightness Sun altitude
Rises 02:35:52 0° 23° (NNE) 3,265 15.7 -9.5°
Reaches altitude 10° 02:38:30 10° 35° (NE) 2,331 14.8 -9.3°
Maximum altitude 02:42:56 29° 95° (E) 1,401 12.4 -8.8°
Drops below altitude 10° 02:47:20 10° 154° (SSE) 2,315 12.8 -8.3°
Sets 02:49:55 0° 166° (SSE) 3,238 13.5 -8.1°
